K8HC Weather Reports


time (UTC)temp
F
wind
direction
speed
knots
gust
knots
rain 1hr
in
rain 24hr
in
rain mn
in
humidity
%
barometer
mb
20260504050003 48 0 0.0 0.9 0.00 0.00 0.00 54 1016.2
20260504045403 48 0 0.0 0.9 0.00 0.00 0.00 52 1016.2
20260504044503 48 0 0.0 0.9 0.00 0.00 0.00 51 1016.2
20260504043603 49 0 0.0 0.9 0.00 0.00 0.00 50 1016.1
20260504042703 50 229 0.9 1.7 0.00 0.00 0.00 48 1016.1
20260504041803 50 229 0.9 1.7 0.00 0.00 0.00 47 1016.1
20260504041121 50 224 0.9 1.7 0.00 0.00 0.00 48 1016.1
20260504040004 50 210 0.9 1.7 0.00 0.00 0.00 48 1016.1
20260504035620 50 215 0.9 1.7 0.00 0.00 0.00 48 1016.1
20260504034503 50 208 0.9 0.9 0.00 0.00 0.00 47 1016.1
20260504033603 50 232 0.9 1.7 0.00 0.00 0.00 47 1016.0
20260504032703 51 270 0.9 0.9 0.00 0.00 0.00 46 1015.9
20260504031803 50 0 0.0 0.9 0.00 0.00 0.00 46 1015.9
20260504030903 50 0 0.0 0.9 0.00 0.00 0.00 46 1016.0
20260504030003 50 0 0.0 0.9 0.00 0.00 0.00 46 1015.9
20260504025403 50 0 0.0 0.0 0.00 0.00 0.00 46 1015.9
20260504024503 51 0 0.0 0.9 0.00 0.00 0.00 46 1015.8
20260504023603 52 0 0.0 0.9 0.00 0.00 0.00 48 1015.7
20260504022703 52 0 0.0 0.9 0.00 0.00 0.00 43 1015.6
20260504021803 52 271 0.9 0.9 0.00 0.00 0.00 43 1015.7
20260504020903 53 279 0.9 0.9 0.00 0.00 0.00 42 1015.6
20260504020004 53 0 0.0 0.9 0.00 0.00 0.00 42 1015.5
20260504015621 52 0 0.0 0.9 0.00 0.00 0.00 42 1015.4
20260504014503 52 0 0.0 0.0 0.00 0.00 0.00 42 1015.4
20260504013603 52 0 0.0 0.0 0.00 0.00 0.00 43 1015.5
20260504012703 52 0 0.0 0.0 0.00 0.00 0.00 43 1015.4
20260504011803 52 0 0.0 0.0 0.00 0.00 0.00 42 1015.3
20260504010903 53 0 0.0 0.0 0.00 0.00 0.00 41 1015.2
20260504010003 54 0 0.0 0.9 0.00 0.00 0.00 40 1015.3
20260504005403 54 0 0.0 0.9 0.00 0.00 0.00 40 1015.3
20260504004503 53 0 0.0 0.0 0.00 0.00 0.00 40 1015.3
20260504003821 54 0 0.0 0.0 0.00 0.00 0.00 40 1015.3
20260504002703 54 0 0.0 0.9 0.00 0.00 0.00 39 1015.1
20260504001803 55 0 0.0 0.9 0.00 0.00 0.00 39 1015.1
20260504000903 56 0 0.0 0.9 0.00 0.00 0.00 39 1014.9
20260504000004 56 0 0.0 0.9 0.00 0.00 0.00 38 1014.8
20260503235403 56 0 0.0 0.9 0.00 0.00 0.00 39 1014.8
20260503234503 57 0 0.0 0.9 0.00 0.00 0.00 38 1014.8
20260503233603 58 0 0.0 0.9 0.00 0.00 0.00 37 1014.7
20260503232703 58 0 0.0 1.7 0.00 0.00 0.00 36 1014.6
20260503231803 59 0 0.0 1.7 0.00 0.00 0.00 35 1014.6
20260503230903 59 0 0.0 1.7 0.00 0.00 0.00 35 1014.5
20260503230003 60 0 0.0 1.7 0.00 0.00 0.00 34 1014.5
20260503225618 60 0 0.0 1.7 0.00 0.00 0.00 34 1014.6
20260503224503 61 265 0.9 1.7 0.00 0.00 0.00 33 1014.4
20260503223603 60 267 0.9 2.6 0.00 0.00 0.00 32 1014.5
20260503222703 61 0 0.0 3.5 0.00 0.00 0.00 32 1014.5
20260503222017 61 0 0.0 1.7 0.00 0.00 0.00 34 1014.5
20260503220903 61 258 0.9 3.5 0.00 0.00 0.00 33 1014.6
20260503220003 62 248 0.9 3.5 0.00 0.00 0.00 32 1014.6
20260503215403 62 201 0.9 4.3 0.00 0.00 0.00 32 1014.6
20260503214503 63 132 1.7 6.1 0.00 0.00 0.00 32 1014.5
20260503213818 64 145 0.9 4.3 0.00 0.00 0.00 29 1014.6
20260503212703 65 283 0.9 3.5 0.00 0.00 0.00 30 1014.5
20260503212018 64 323 0.9 4.3 0.00 0.00 0.00 29 1014.7
20260503210903 64 344 0.9 2.6 0.00 0.00 0.00 28 1014.7
20260503210217 64 178 0.9 2.6 0.00 0.00 0.00 28 1014.7
20260503205403 64 340 0.9 2.6 0.00 0.00 0.00 28 1014.8
20260503204503 64 307 1.7 3.5 0.00 0.00 0.00 29 1014.7
20260503203603 64 258 0.9 2.6 0.00 0.00 0.00 28 1014.6
20260503202921 64 321 0.9 2.6 0.00 0.00 0.00 30 1014.9
20260503201803 65 286 1.7 3.5 0.00 0.00 0.00 27 1014.9
20260503200903 67 1 0.9 3.5 0.00 0.00 0.00 26 1015.1
20260503200003 67 65 0.9 2.6 0.00 0.00 0.00 28 1015.0
20260503195620 66 257 0.9 4.3 0.00 0.00 0.00 29 1015.1
20260503194503 66 264 0.9 4.3 0.00 0.00 0.00 26 1015.2
20260503193603 65 240 0.9 3.5 0.00 0.00 0.00 29 1015.5
20260503192917 65 266 1.7 3.5 0.00 0.00 0.00 28 1015.5
20260503192019 66 278 1.7 4.3 0.00 0.00 0.00 28 1015.6
20260503191122 64 268 0.9 5.2 0.00 0.00 0.00 28 1015.7
20260503190219 65 233 0.9 2.6 0.00 0.00 0.00 26 1015.7
20260503185403 64 246 0.9 3.5 0.00 0.00 0.00 28 1015.7
20260503184503 65 127 0.9 2.6 0.00 0.00 0.00 27 1016.0
20260503183820 64 280 1.7 5.2 0.00 0.00 0.00 27 1016.1
20260503182704 64 260 0.9 3.5 0.00 0.00 0.00 27 1016.2
20260503181803 63 266 1.7 5.2 0.00 0.00 0.00 28 1016.1
20260503180903 64 261 1.7 5.2 0.00 0.00 0.00 28 1016.1
20260503180004 64 276 1.7 4.3 0.00 0.00 0.00 28 1016.2
20260503175403 64 312 1.7 5.2 0.00 0.00 0.00 28 1016.2
20260503174503 64 276 0.9 5.2 0.00 0.00 0.00 27 1016.4
20260503173603 63 298 0.9 3.5 0.00 0.00 0.00 31 1016.6
20260503172703 62 305 0.9 3.5 0.00 0.00 0.00 29 1016.7
20260503171803 63 270 0.9 4.3 0.00 0.00 0.00 31 1016.8
20260503170903 62 291 0.9 4.3 0.00 0.00 0.00 29 1016.7
20260503150903 54 273 1.7 4.3 0.00 0.00 0.00 43 1017.8
20260503150221 54 291 1.7 4.3 0.00 0.00 0.00 45 1017.8
20260503130903 44 0 0.0 3.5 0.00 0.00 0.00 61 1018.2
20260503120218 39 0 0.0 0.0 0.00 0.00 0.00 73 1017.9
20260503080903 39 0 0.0 0.0 0.00 0.00 0.00 76 1015.8
20260503072703 38 0 0.0 0.0 0.00 0.00 0.00 82 1015.5